Weather History for Chicopee, MA

Change the Weather History Date:

Wednesday, January 23, 2013

  Actual Average Record
Temperature  
Mean Temperature 10 °F -  
Max Temperature 15 °F 28 °F 51 °F (2002)
Min Temperature 5 °F 13 °F -10 °F (2011)
Degree Days  
Heating Degree Days 55    
Moisture  
Dew Point -7 °F    
Average Humidity 49    
Maximum Humidity 60    
Minimum Humidity 38    
Precipitation  
Precipitation 0.00 in - - ()
Sea Level Pressure  
Sea Level Pressure 30.15 in    
Wind  
Wind Speed 12 mph (WNW)    
Max Wind Speed 21 mph    
Max Gust Speed 30 mph    
Visibility 10 miles    
Events      
Averages and records for this station are not official NWS values.
T = Trace of Precipitation, MM = Missing Value Source: NWS Daily Summary

Daily Weather History Graph

Daily Weather History Graph

Search for Another Location

Airport:

Trip Planner

Search our weather history database for the weather conditions in past years. The results will help you decide how hot, cold, wet, or windy it might be!

Date:

Astronomy

Jan. 23, 2013 Rise Set
Actual Time 7:11 AM EST 4:53 PM EST
Civil Twilight 6:40 AM EST 5:23 PM EST
Nautical Twilight 6:06 AM EST 5:57 PM EST
Astronomical Twilight 5:33 AM EST 6:31 PM EST
Moon 2:00 PM EST (1/23) 4:21 AM EST (1/23)
Length of Visible Light 10h 42m
Length of Day
9h 42m
Waxing Gibbous, 89% of the Moon is Illuminated
Jan 23
Waxing Gibbous
Jan 26
Full
Feb 3
Last Quarter
Feb 10
New
Feb 17
First Quarter

Hourly Weather History & Observations

Time (EST) Temp. Windchill Dew Point Humidity Pressure Visibility Wind Dir Wind Speed Gust Speed Precip Events Conditions
12:55 AM 8.8 °F -6.1 °F -5.8 °F 52% 30.10 in 10.0 mi West 11.5 mph - N/A   Clear
1:55 AM 8.2 °F -6.8 °F -5.6 °F 53% 30.12 in 10.0 mi WNW 11.5 mph - N/A   Clear
2:55 AM 7.7 °F -5.8 °F -4.5 °F 57% 30.13 in 10.0 mi West 9.2 mph - N/A   Clear
3:55 AM 7.9 °F -8.6 °F -4.7 °F 57% 30.14 in 10.0 mi West 13.8 mph - N/A   Clear
4:55 AM 7.2 °F -9.6 °F -5.6 °F 56% 30.14 in 10.0 mi West 13.8 mph - N/A   Clear
5:55 AM 6.4 °F -9.0 °F -5.8 °F 57% 30.16 in 10.0 mi West 11.5 mph - N/A   Clear
6:55 AM 5.2 °F -5.4 °F -6.2 °F 60% 30.17 in 10.0 mi WNW 5.8 mph - N/A   Partly Cloudy
7:55 AM 5.5 °F -8.4 °F -5.6 °F 60% 30.18 in 10.0 mi West 9.2 mph - N/A   Clear
8:55 AM 7.7 °F -7.4 °F -4.4 °F 58% 30.18 in 10.0 mi West 11.5 mph - N/A   Clear
9:55 AM 9.9 °F -1.1 °F -3.5 °F 55% 30.19 in 10.0 mi WNW 6.9 mph - N/A   Scattered Clouds
10:55 AM 12.2 °F -3.1 °F -4.5 °F 47% 30.17 in 10.0 mi NW 13.8 mph 24.2 mph N/A   Partly Cloudy
11:55 AM 14.0 °F -2.5 °F -4.2 °F 44% 30.14 in 10.0 mi WNW 17.3 mph 24.2 mph N/A   Clear
12:55 PM 15.1 °F -1.1 °F -4.7 °F 41% 30.12 in 10.0 mi West 17.3 mph 29.9 mph N/A   Overcast
1:55 PM 13.8 °F -3.2 °F -6.2 °F 41% 30.12 in 10.0 mi NW 18.4 mph 27.6 mph N/A   Scattered Clouds
2:55 PM 14.0 °F -3.4 °F -6.9 °F 39% 30.12 in 10.0 mi WNW 19.6 mph 27.6 mph N/A   Partly Cloudy
3:55 PM 12.9 °F -5.3 °F -8.3 °F 38% 30.12 in 10.0 mi NW 20.7 mph 29.9 mph N/A   Clear
4:55 PM 10.9 °F -5.4 °F -8.7 °F 41% 30.14 in 10.0 mi West 15.0 mph 26.5 mph N/A   Clear
6:55 PM 8.6 °F -6.3 °F -9.8 °F 43% 30.17 in 10.0 mi WNW 11.5 mph 20.7 mph N/A   Clear
7:55 PM 7.5 °F -10.3 °F -10.5 °F 44% 30.17 in 10.0 mi WNW 16.1 mph - N/A   Clear
8:55 PM 6.8 °F -8.6 °F -9.8 °F 47% 30.17 in 10.0 mi WNW 11.5 mph - N/A   Clear
9:55 PM 6.1 °F -7.8 °F -9.6 °F 49% 30.17 in 10.0 mi WNW 9.2 mph - N/A   Clear
10:55 PM 5.2 °F -6.7 °F -9.8 °F 50% 30.17 in 10.0 mi WNW 6.9 mph - N/A   Clear